IBE6123 EGLL-FACT

Flight info

Callsign IBE6123
Flight time N/A
Altitude 35000
Route MODMI M185 MID L612 HAWKE UL612 VEULE DCT DEKOD DCT DISAK DCT DIRMO DCT ETAMO DCT ADEKA DCT MOKDI DCT MEN DCT AMLIR DCT FJR DCT OBLAD DCT KAMER UM998 CSO/N0485F370 UA605 DJA UB730 DIR UA607 FL/N0486F390 UA403 BZ DCT KSA UT943 IMVEX/N0483F400 UT943 UNLOK/N0481F410 UT943 VEDRY/N0484F400 UN185 OKLOK Q23 DUMDO DCT ERDAS ERDAS1B
Aircraft A359/H-SDE2E3GHIJ3J4J5LM1ORWXY/LB1D1

Departure

Time 2026-05-08 01:11
Airport London Heathrow Airport (EGLL)

Arrival

Time N/A
Airport Cape Town International Airport (FACT)
Time Latitude Longitude Altitude Speed Heading
2026-05-08 00:27 51.47133 -0.48020 96 ft 0 kts 270°
2026-05-08 01:01 51.47133 -0.48016 92 ft 2 kts 269°
2026-05-08 01:01 51.47136 -0.47978 95 ft 4 kts 253°
2026-05-08 01:01 51.47145 -0.47938 92 ft 4 kts 251°
2026-05-08 01:01 51.47151 -0.47902 92 ft 4 kts 242°
2026-05-08 01:02 51.47168 -0.47876 93 ft 4 kts 194°
2026-05-08 01:02 51.47193 -0.47871 95 ft 2 kts 180°
2026-05-08 01:02 51.47199 -0.47871 92 ft 0 kts 180°
2026-05-08 01:05 51.47193 -0.47871 95 ft 2 kts 179°
2026-05-08 01:05 51.47159 -0.47871 94 ft 8 kts 180°
2026-05-08 01:05 51.47083 -0.47870 96 ft 13 kts 179°
2026-05-08 01:06 51.46992 -0.47869 95 ft 14 kts 180°
2026-05-08 01:06 51.46897 -0.47868 94 ft 14 kts 180°
2026-05-08 01:06 51.46796 -0.47867 95 ft 15 kts 180°
2026-05-08 01:06 51.46699 -0.47867 95 ft 11 kts 181°
2026-05-08 01:07 51.46659 -0.47944 96 ft 10 kts 257°
2026-05-08 01:07 51.46654 -0.48056 97 ft 10 kts 269°
2026-05-08 01:07 51.46652 -0.48177 97 ft 11 kts 268°
2026-05-08 01:07 51.46652 -0.48307 95 ft 12 kts 271°
2026-05-08 01:08 51.46652 -0.48445 95 ft 13 kts 270°
2026-05-08 01:08 51.46652 -0.48593 94 ft 14 kts 270°
2026-05-08 01:08 51.46643 -0.48723 95 ft 9 kts 233°
2026-05-08 01:08 51.46584 -0.48773 96 ft 10 kts 199°
2026-05-08 01:09 51.46529 -0.48786 95 ft 5 kts 168°
2026-05-08 01:09 51.46506 -0.48766 93 ft 4 kts 146°
2026-05-08 01:09 51.46484 -0.48727 94 ft 5 kts 122°
2026-05-08 01:09 51.46479 -0.48672 94 ft 5 kts 91°
2026-05-08 01:10 51.46479 -0.48660 92 ft 0 kts 90°
2026-05-08 01:10 51.46479 -0.48495 95 ft 41 kts 90°
2026-05-08 01:11 51.46481 -0.47691 94 ft 101 kts 90°
2026-05-08 01:11 51.46486 -0.46300 98 ft 150 kts 89°
2026-05-08 01:11 51.46500 -0.44468 411 ft 165 kts 89°
2026-05-08 01:11 51.46487 -0.42652 999 ft 164 kts 98°
2026-05-08 01:12 51.46089 -0.40941 1513 ft 165 kts 118°
2026-05-08 01:12 51.45462 -0.39397 2035 ft 166 kts 134°
2026-05-08 01:12 51.44503 -0.38431 2463 ft 161 kts 159°
2026-05-08 01:12 51.43450 -0.37834 2876 ft 160 kts 162°
2026-05-08 01:13 51.42380 -0.37278 3205 ft 166 kts 162°
2026-05-08 01:13 51.41233 -0.36669 3409 ft 181 kts 161°
2026-05-08 01:13 51.39956 -0.36197 3582 ft 198 kts 176°
2026-05-08 01:13 51.38575 -0.36620 3793 ft 214 kts 200°
2026-05-08 01:14 51.37162 -0.37663 3973 ft 233 kts 205°
2026-05-08 01:14 51.35661 -0.38865 4225 ft 248 kts 205°
2026-05-08 01:14 51.34086 -0.40113 4659 ft 255 kts 205°
2026-05-08 01:14 51.32478 -0.41373 5190 ft 259 kts 205°
2026-05-08 01:15 51.30851 -0.42649 5711 ft 262 kts 205°
2026-05-08 01:15 51.29205 -0.43948 6263 ft 265 kts 205°
2026-05-08 01:15 51.27543 -0.45255 6832 ft 267 kts 205°
2026-05-08 01:15 51.25802 -0.46317 7359 ft 269 kts 192°
2026-05-08 01:16 51.23930 -0.46516 7859 ft 272 kts 175°
2026-05-08 01:16 51.22058 -0.46025 8397 ft 274 kts 167°
2026-05-08 01:16 51.20218 -0.45247 8926 ft 277 kts 164°
2026-05-08 01:16 51.18354 -0.44358 9456 ft 280 kts 163°
2026-05-08 01:17 51.16480 -0.43466 10000 ft 282 kts 164°
2026-05-08 01:17 51.14572 -0.42600 10387 ft 291 kts 165°
2026-05-08 01:17 51.12562 -0.41741 10613 ft 305 kts 166°
2026-05-08 01:17 51.10462 -0.40885 10851 ft 318 kts 167°
2026-05-08 01:18 51.08269 -0.40017 11069 ft 331 kts 167°
2026-05-08 01:18 51.05991 -0.39121 11289 ft 343 kts 167°
2026-05-08 01:18 51.03630 -0.38200 11527 ft 354 kts 168°
2026-05-08 01:18 51.01218 -0.37260 11928 ft 359 kts 168°
2026-05-08 01:19 50.98782 -0.36309 12381 ft 362 kts 168°
2026-05-08 01:19 50.96355 -0.35360 12856 ft 364 kts 168°
2026-05-08 01:19 50.93888 -0.34394 13320 ft 366 kts 168°
2026-05-08 01:19 50.91402 -0.33420 13775 ft 368 kts 168°
2026-05-08 01:20 50.88908 -0.32444 14227 ft 370 kts 168°
2026-05-08 01:20 50.86395 -0.31462 14663 ft 372 kts 168°
2026-05-08 01:20 50.83871 -0.30476 15108 ft 374 kts 168°
2026-05-08 01:20 50.81340 -0.29491 15534 ft 376 kts 168°
2026-05-08 01:21 50.78823 -0.28512 15959 ft 378 kts 168°
2026-05-08 01:21 50.76258 -0.27515 16384 ft 380 kts 167°
2026-05-08 01:21 50.73683 -0.26514 16803 ft 382 kts 168°
2026-05-08 01:21 50.71125 -0.25334 17201 ft 385 kts 160°
2026-05-08 01:22 50.68708 -0.23467 17606 ft 388 kts 153°
2026-05-08 01:22 50.66369 -0.21286 17991 ft 391 kts 149°
2026-05-08 01:22 50.64846 -0.19751 18252 ft 393 kts 148°
2026-05-08 01:22 50.61794 -0.16532 18774 ft 396 kts 147°
2026-05-08 01:23 50.60304 -0.14935 19010 ft 397 kts 147°
2026-05-08 01:23 50.58009 -0.12476 19381 ft 399 kts 148°
2026-05-08 01:23 50.55706 -0.10027 19768 ft 401 kts 148°
2026-05-08 01:23 50.52625 -0.06781 20250 ft 403 kts 148°
2026-05-08 01:24 50.51046 -0.05129 20487 ft 404 kts 148°
2026-05-08 01:24 50.48694 -0.02679 20837 ft 406 kts 148°
2026-05-08 01:24 50.46331 -0.00225 21181 ft 408 kts 148°
2026-05-08 01:24 50.43950 0.02245 21543 ft 410 kts 148°
2026-05-08 01:25 50.40775 0.05537 21847 ft 417 kts 148°
2026-05-08 01:25 50.39133 0.07234 22041 ft 418 kts 149°
2026-05-08 01:25 50.36698 0.09749 22407 ft 420 kts 149°
2026-05-08 01:25 50.34286 0.12242 22734 ft 421 kts 149°
2026-05-08 01:26 50.31826 0.14778 23056 ft 423 kts 149°
2026-05-08 01:26 50.29355 0.17321 23363 ft 425 kts 149°
2026-05-08 01:26 50.26877 0.19868 23691 ft 426 kts 149°
2026-05-08 01:26 50.24388 0.22421 24013 ft 428 kts 149°
2026-05-08 01:27 50.21886 0.24986 24320 ft 430 kts 149°
2026-05-08 01:27 50.19407 0.27528 24602 ft 432 kts 149°
2026-05-08 01:27 50.16890 0.30119 24883 ft 434 kts 149°
2026-05-08 01:27 50.14363 0.32718 25164 ft 436 kts 149°
2026-05-08 01:28 50.11817 0.35334 25441 ft 438 kts 149°
2026-05-08 01:28 50.09263 0.37955 25724 ft 440 kts 149°
2026-05-08 01:28 50.06700 0.40580 26000 ft 442 kts 149°
2026-05-08 01:28 50.04122 0.43218 26281 ft 444 kts 149°
2026-05-08 01:29 50.01531 0.45864 26559 ft 446 kts 149°
2026-05-08 01:29 49.98932 0.48515 26825 ft 448 kts 149°
2026-05-08 01:29 49.96316 0.51180 27120 ft 450 kts 149°
2026-05-08 01:29 49.93697 0.53845 27405 ft 451 kts 149°
2026-05-08 01:30 49.91091 0.56492 27675 ft 453 kts 149°
2026-05-08 01:30 49.88412 0.59210 27936 ft 455 kts 149°
2026-05-08 01:30 49.85786 0.61871 28180 ft 457 kts 149°
2026-05-08 01:30 49.83110 0.64563 28443 ft 459 kts 150°
2026-05-08 01:31 49.80409 0.67211 28709 ft 460 kts 150°
2026-05-08 01:31 49.77684 0.69847 28944 ft 462 kts 150°
2026-05-08 01:31 49.74949 0.72479 29194 ft 464 kts 150°
2026-05-08 01:31 49.72205 0.75121 29444 ft 465 kts 150°
2026-05-08 01:32 49.69451 0.77777 29668 ft 467 kts 150°
2026-05-08 01:32 49.66690 0.80444 29890 ft 469 kts 150°
2026-05-08 01:32 49.63922 0.83120 30116 ft 470 kts 150°
2026-05-08 01:32 49.61143 0.85806 30304 ft 472 kts 150°
2026-05-08 01:33 49.58357 0.88494 30509 ft 474 kts 150°
2026-05-08 01:33 49.55558 0.91191 30726 ft 475 kts 150°
2026-05-08 01:33 49.52743 0.93899 30926 ft 477 kts 150°
2026-05-08 01:33 49.49927 0.96604 31136 ft 478 kts 150°
2026-05-08 01:34 49.47107 0.99310 31340 ft 479 kts 150°
2026-05-08 01:34 49.44271 1.02027 31524 ft 480 kts 150°
2026-05-08 01:34 49.41429 1.04744 31699 ft 482 kts 150°
2026-05-08 01:34 49.38587 1.07460 31955 ft 481 kts 150°
2026-05-08 01:35 49.35746 1.10171 32215 ft 480 kts 150°
2026-05-08 01:35 49.32914 1.12870 32445 ft 479 kts 150°
2026-05-08 01:35 49.30084 1.15564 32673 ft 479 kts 151°
2026-05-08 01:35 49.27290 1.18219 32912 ft 478 kts 151°
2026-05-08 01:36 49.24458 1.20906 33135 ft 478 kts 151°
2026-05-08 01:36 49.21631 1.23585 33365 ft 477 kts 151°
2026-05-08 01:36 49.18803 1.26252 33660 ft 477 kts 151°
2026-05-08 01:36 49.15985 1.28910 33981 ft 475 kts 151°
2026-05-08 01:37 49.13173 1.31565 34220 ft 474 kts 151°
2026-05-08 01:37 49.10365 1.34214 34379 ft 475 kts 151°
2026-05-08 01:37 49.07586 1.36831 34515 ft 475 kts 151°
2026-05-08 01:37 49.04768 1.39482 34693 ft 475 kts 151°
2026-05-08 01:38 49.01953 1.42126 34869 ft 475 kts 151°
2026-05-08 01:38 48.99133 1.44771 35015 ft 476 kts 151°
2026-05-08 01:38 48.96301 1.47423 35042 ft 479 kts 151°
2026-05-08 01:39 48.90574 1.52771 35047 ft 484 kts 151°
2026-05-08 01:39 48.84833 1.58122 35045 ft 483 kts 151°
2026-05-08 01:40 48.79099 1.63450 35045 ft 483 kts 152°
2026-05-08 01:40 48.73367 1.68757 35044 ft 483 kts 152°
2026-05-08 01:41 48.67662 1.74029 35044 ft 483 kts 152°
2026-05-08 01:41 48.61910 1.79332 35044 ft 483 kts 152°
2026-05-08 01:42 48.56195 1.84586 35045 ft 483 kts 152°
2026-05-08 01:42 48.50456 1.89847 35046 ft 482 kts 152°
2026-05-08 01:43 48.44714 1.95096 35045 ft 482 kts 152°
2026-05-08 01:43 48.38964 2.00339 35045 ft 482 kts 152°
2026-05-08 01:44 48.33211 2.05571 35043 ft 482 kts 152°
2026-05-08 01:44 48.27230 2.09761 35035 ft 474 kts 166°
2026-05-08 01:45 48.20775 2.11708 35036 ft 472 kts 174°
2026-05-08 01:45 48.14266 2.13041 35035 ft 471 kts 177°
2026-05-08 01:46 48.07728 2.13558 35035 ft 470 kts 180°
2026-05-08 01:46 48.01194 2.13918 35043 ft 470 kts 180°
2026-05-08 01:47 47.94656 2.14274 35045 ft 470 kts 180°
2026-05-08 01:47 47.88116 2.14649 35046 ft 470 kts 180°
2026-05-08 01:48 47.78344 2.15221 35044 ft 470 kts 180°
2026-05-08 01:48 47.71808 2.15603 35045 ft 470 kts 180°
2026-05-08 01:49 47.65254 2.15984 35041 ft 470 kts 180°
2026-05-08 01:49 47.58715 2.16364 35036 ft 470 kts 180°
2026-05-08 01:50 47.52217 2.16739 35036 ft 470 kts 180°
2026-05-08 01:50 47.45675 2.17117 35035 ft 470 kts 180°
2026-05-08 01:51 47.39119 2.17495 35028 ft 470 kts 180°
2026-05-08 01:51 47.32579 2.17871 35026 ft 470 kts 180°
2026-05-08 01:52 47.26037 2.18246 35023 ft 470 kts 180°
2026-05-08 01:52 47.19495 2.18620 35022 ft 470 kts 180°
2026-05-08 01:53 47.12997 2.18998 35013 ft 471 kts 179°
2026-05-08 01:53 47.06543 2.20736 35019 ft 475 kts 163°
2026-05-08 01:54 47.00330 2.24112 35017 ft 477 kts 161°
2026-05-08 01:54 46.94172 2.27761 35023 ft 477 kts 160°
2026-05-08 01:55 46.88016 2.31410 35015 ft 477 kts 161°
2026-05-08 01:55 46.82050 2.35710 35014 ft 481 kts 151°
2026-05-08 01:56 46.76387 2.40949 35011 ft 481 kts 149°
2026-05-08 01:56 46.70823 2.46282 35013 ft 481 kts 149°
2026-05-08 01:57 46.65221 2.51647 35012 ft 481 kts 149°
2026-05-08 01:57 46.59613 2.56975 35009 ft 481 kts 149°
2026-05-08 01:58 46.53993 2.62284 35003 ft 481 kts 149°
2026-05-08 01:58 46.48368 2.67584 35012 ft 482 kts 149°
2026-05-08 01:59 46.42727 2.72876 35017 ft 481 kts 150°
2026-05-08 01:59 46.37143 2.78116 35020 ft 481 kts 150°
2026-05-08 02:00 46.31512 2.83385 35015 ft 481 kts 150°
2026-05-08 02:00 46.25889 2.88636 35020 ft 481 kts 150°
2026-05-08 02:01 46.20257 2.93882 35015 ft 481 kts 150°
2026-05-08 02:01 46.14622 2.99112 35022 ft 482 kts 150°
2026-05-08 02:02 46.08979 3.04337 35016 ft 482 kts 150°
2026-05-08 02:02 46.03369 3.09522 35013 ft 482 kts 150°
2026-05-08 02:03 45.97647 3.14545 35021 ft 479 kts 156°
2026-05-08 02:03 45.91401 3.17521 35019 ft 469 kts 174°
2026-05-08 02:04 45.84916 3.18029 35016 ft 466 kts 182°
2026-05-08 02:04 45.78476 3.17914 35016 ft 466 kts 183°
2026-05-08 02:05 45.71980 3.17743 35022 ft 466 kts 183°
2026-05-08 02:05 45.65495 3.17619 35020 ft 466 kts 183°
2026-05-08 02:06 45.59014 3.17528 35019 ft 465 kts 182°
2026-05-08 02:06 45.52537 3.17447 35013 ft 465 kts 182°
2026-05-08 02:07 45.46067 3.17367 35019 ft 464 kts 183°
2026-05-08 02:07 45.39644 3.17279 35015 ft 464 kts 183°
2026-05-08 02:08 45.33183 3.17195 35013 ft 463 kts 183°
2026-05-08 02:08 45.26745 3.17105 35019 ft 463 kts 183°
2026-05-08 02:09 45.20288 3.17332 35008 ft 465 kts 175°
2026-05-08 02:09 45.14016 3.19429 35005 ft 468 kts 165°
2026-05-08 02:10 45.07863 3.22579 35011 ft 470 kts 162°
2026-05-08 02:10 45.01751 3.25878 35006 ft 470 kts 163°
2026-05-08 02:11 44.96659 3.28557 35011 ft 469 kts 163°
2026-05-08 02:11 44.90506 3.31711 35007 ft 469 kts 164°
2026-05-08 02:12 44.84369 3.34813 35012 ft 468 kts 164°
2026-05-08 02:12 44.78253 3.37901 34998 ft 467 kts 164°
2026-05-08 02:13 44.72178 3.40966 35006 ft 466 kts 164°
2026-05-08 02:13 44.66070 3.44046 35004 ft 466 kts 164°
2026-05-08 02:14 44.59964 3.47120 35006 ft 465 kts 164°
2026-05-08 02:14 44.53875 3.50171 34997 ft 464 kts 164°
2026-05-08 02:15 44.47831 3.53200 34996 ft 463 kts 165°
2026-05-08 02:15 44.41744 3.56237 34993 ft 463 kts 165°
2026-05-08 02:16 44.35671 3.59260 34999 ft 462 kts 165°
2026-05-08 02:16 44.29646 3.62255 34993 ft 462 kts 165°
2026-05-08 02:17 44.23578 3.65266 34995 ft 462 kts 165°
2026-05-08 02:17 44.17524 3.68263 35003 ft 461 kts 165°
2026-05-08 02:18 44.11474 3.71252 34999 ft 460 kts 165°
2026-05-08 02:18 44.05432 3.74232 34987 ft 460 kts 165°
2026-05-08 02:19 43.99397 3.77201 34997 ft 460 kts 165°
2026-05-08 02:19 43.93407 3.80141 34986 ft 459 kts 165°
2026-05-08 02:20 43.87378 3.83093 35002 ft 459 kts 165°
2026-05-08 02:20 43.81340 3.86043 34986 ft 459 kts 165°
2026-05-08 02:21 43.75310 3.88983 34984 ft 459 kts 165°
2026-05-08 02:21 43.69279 3.91917 35001 ft 459 kts 165°
2026-05-08 02:22 43.63249 3.94845 34986 ft 460 kts 165°
2026-05-08 02:22 43.57212 3.97772 34986 ft 460 kts 165°
2026-05-08 02:23 43.51274 4.01147 34998 ft 463 kts 160°
2026-05-08 02:23 43.45459 4.04823 34987 ft 462 kts 160°
2026-05-08 02:24 43.39590 4.08474 34987 ft 462 kts 161°
2026-05-08 02:24 43.33712 4.12036 34994 ft 461 kts 161°
2026-05-08 02:25 43.27843 4.15554 34988 ft 461 kts 161°
2026-05-08 02:25 43.21960 4.19071 34985 ft 461 kts 161°
2026-05-08 02:26 43.16119 4.22559 34986 ft 461 kts 161°
2026-05-08 02:26 43.10231 4.26070 34992 ft 461 kts 161°
2026-05-08 02:27 43.04333 4.29580 34987 ft 461 kts 161°
2026-05-08 02:27 42.98445 4.33076 34985 ft 461 kts 161°
2026-05-08 02:28 42.92598 4.36541 35001 ft 460 kts 161°
2026-05-08 02:28 42.86713 4.40021 34994 ft 460 kts 161°
2026-05-08 02:29 42.80838 4.43489 34986 ft 460 kts 161°
2026-05-08 02:29 42.74966 4.46947 34986 ft 460 kts 161°
2026-05-08 02:30 42.69087 4.50401 34993 ft 460 kts 161°
2026-05-08 02:30 42.63240 4.53831 34986 ft 460 kts 161°
2026-05-08 02:31 42.57345 4.57280 34985 ft 461 kts 161°
2026-05-08 02:31 42.51452 4.60722 34986 ft 461 kts 161°
2026-05-08 02:32 42.45560 4.64156 35003 ft 460 kts 161°
2026-05-08 02:32 42.39676 4.67578 34987 ft 460 kts 161°
2026-05-08 02:33 42.33819 4.70979 34984 ft 460 kts 161°
2026-05-08 02:33 42.27931 4.74390 34985 ft 460 kts 161°
2026-05-08 02:34 42.22048 4.77791 34981 ft 460 kts 161°
2026-05-08 02:34 42.16143 4.81197 34980 ft 460 kts 161°
2026-05-08 02:35 42.10288 4.84567 34981 ft 460 kts 161°
2026-05-08 02:35 42.04395 4.87953 34981 ft 460 kts 161°
2026-05-08 02:36 41.98500 4.91334 34981 ft 460 kts 161°
2026-05-08 02:36 41.92581 4.94720 34982 ft 464 kts 161°
2026-05-08 02:37 41.86625 4.98120 34981 ft 466 kts 161°
2026-05-08 02:37 41.80654 5.01365 34982 ft 464 kts 166°
2026-05-08 02:38 41.74500 5.03959 34979 ft 463 kts 167°
2026-05-08 02:38 41.68320 5.06419 34979 ft 464 kts 167°
2026-05-08 02:39 41.62124 5.08862 34971 ft 464 kts 167°
2026-05-08 02:39 41.55925 5.11312 34972 ft 464 kts 167°
2026-05-08 02:40 41.49731 5.13765 34971 ft 464 kts 167°
2026-05-08 02:40 41.43526 5.16218 34971 ft 465 kts 167°
2026-05-08 02:41 41.37351 5.18655 34971 ft 466 kts 167°
2026-05-08 02:41 41.31127 5.21107 34971 ft 466 kts 167°
2026-05-08 02:42 41.24897 5.23555 34972 ft 467 kts 167°
2026-05-08 02:42 41.18647 5.26006 34970 ft 468 kts 167°
2026-05-08 02:43 41.12400 5.28450 34966 ft 468 kts 167°
2026-05-08 02:43 41.06183 5.30880 34963 ft 469 kts 167°
2026-05-08 02:44 40.99919 5.33322 34961 ft 469 kts 167°
2026-05-08 02:44 40.93643 5.35764 34961 ft 470 kts 167°
2026-05-08 02:45 40.87349 5.38208 34963 ft 471 kts 167°
2026-05-08 02:45 40.81101 5.40629 34961 ft 471 kts 167°
2026-05-08 02:46 40.74800 5.43066 34963 ft 471 kts 167°
2026-05-08 02:46 40.68499 5.45500 34960 ft 472 kts 167°
2026-05-08 02:47 40.62185 5.47933 34963 ft 472 kts 168°
2026-05-08 02:47 40.55863 5.50363 34957 ft 473 kts 167°
2026-05-08 02:48 40.49542 5.52788 34953 ft 474 kts 167°
2026-05-08 02:48 40.43237 5.55203 34951 ft 474 kts 168°
2026-05-08 02:49 40.36898 5.57625 34948 ft 474 kts 168°
2026-05-08 02:49 40.30548 5.60048 34941 ft 474 kts 168°
2026-05-08 02:50 40.24241 5.62451 34945 ft 474 kts 168°
2026-05-08 02:50 40.17887 5.64866 34950 ft 475 kts 168°
2026-05-08 02:51 40.11536 5.67274 34951 ft 475 kts 168°
2026-05-08 02:51 40.05214 5.69666 34949 ft 475 kts 168°
2026-05-08 02:52 39.98875 5.72061 34952 ft 475 kts 168°
2026-05-08 02:52 39.92524 5.74455 34953 ft 476 kts 168°
2026-05-08 02:53 39.86149 5.76854 34953 ft 476 kts 168°
2026-05-08 02:53 39.79779 5.79247 34951 ft 476 kts 168°
2026-05-08 02:54 39.73410 5.81636 34941 ft 477 kts 168°
2026-05-08 02:54 39.67057 5.84013 34948 ft 477 kts 168°
2026-05-08 02:55 39.57460 5.87595 34951 ft 478 kts 168°
2026-05-08 02:56 39.51089 5.89966 34952 ft 479 kts 168°
2026-05-08 02:56 39.44668 5.92352 34939 ft 480 kts 168°
2026-05-08 02:57 39.38226 5.94742 34940 ft 482 kts 168°
2026-05-08 02:57 39.31767 5.97133 34950 ft 483 kts 169°
2026-05-08 02:58 39.25318 5.99516 34951 ft 485 kts 169°
2026-05-08 02:58 39.19876 6.01524 34951 ft 486 kts 169°
2026-05-08 02:59 39.13401 6.03911 34954 ft 483 kts 169°
2026-05-08 02:59 39.05880 6.06674 34953 ft 484 kts 169°
2026-05-08 03:00 39.00437 6.08586 34954 ft 482 kts 174°
2026-05-08 03:00 38.93883 6.10081 34957 ft 481 kts 176°
2026-05-08 03:01 38.87254 6.11406 34961 ft 482 kts 177°
2026-05-08 03:01 38.80600 6.12701 34960 ft 483 kts 177°
2026-05-08 03:02 38.73936 6.14008 34960 ft 485 kts 177°
2026-05-08 03:02 38.67242 6.15329 34960 ft 487 kts 177°
2026-05-08 03:03 38.60528 6.16655 34962 ft 489 kts 178°
2026-05-08 03:03 38.53841 6.17973 34958 ft 490 kts 178°
2026-05-08 03:04 38.47087 6.19301 34955 ft 491 kts 178°
2026-05-08 03:04 38.40314 6.20630 34957 ft 493 kts 178°
2026-05-08 03:05 38.33533 6.21959 34950 ft 494 kts 178°
2026-05-08 03:05 38.26726 6.23290 34955 ft 495 kts 178°
2026-05-08 03:06 38.19920 6.24618 34962 ft 496 kts 178°
2026-05-08 03:06 38.13136 6.25940 34961 ft 496 kts 178°
2026-05-08 03:07 38.06303 6.27268 34965 ft 496 kts 178°
2026-05-08 03:07 37.99469 6.28595 34963 ft 497 kts 178°
2026-05-08 03:08 37.92623 6.29920 34960 ft 497 kts 178°
2026-05-08 03:08 37.85786 6.31242 34960 ft 497 kts 178°
2026-05-08 03:09 37.78971 6.32557 34965 ft 499 kts 180°
2026-05-08 03:09 37.72039 6.33884 34973 ft 508 kts 180°
2026-05-08 03:10 37.65010 6.35232 34975 ft 510 kts 180°
2026-05-08 03:10 37.58042 6.36577 34981 ft 509 kts 179°
2026-05-08 03:11 37.51040 6.37921 34981 ft 508 kts 179°
2026-05-08 03:11 37.44032 6.39263 34979 ft 508 kts 179°
2026-05-08 03:12 37.37087 6.40587 34981 ft 507 kts 179°
2026-05-08 03:12 37.30105 6.41915 34981 ft 507 kts 179°
2026-05-08 03:13 37.23105 6.43245 34980 ft 507 kts 179°
2026-05-08 03:13 37.16128 6.44569 34981 ft 507 kts 179°
2026-05-08 03:14 37.09142 6.45891 34980 ft 507 kts 179°
2026-05-08 03:14 37.02217 6.47201 34979 ft 506 kts 179°
2026-05-08 03:15 36.95238 6.48520 34980 ft 506 kts 179°
2026-05-08 03:15 36.88280 6.49828 34981 ft 505 kts 179°
2026-05-08 03:16 36.81317 6.51135 34982 ft 505 kts 178°
2026-05-08 03:16 36.74415 6.52429 34998 ft 504 kts 178°
2026-05-08 03:17 36.67471 6.53728 34984 ft 504 kts 178°
2026-05-08 03:17 36.60533 6.55027 34998 ft 504 kts 178°
2026-05-08 03:18 36.53596 6.56320 35005 ft 504 kts 178°
2026-05-08 03:18 36.46653 6.57613 35007 ft 504 kts 178°
2026-05-08 03:19 36.39724 6.58904 35015 ft 503 kts 178°
2026-05-08 03:19 36.32796 6.60189 35011 ft 503 kts 178°
2026-05-08 03:19 36.29373 6.60824 35192 ft 501 kts 178°
2026-05-08 03:20 36.25935 6.61525 35537 ft 499 kts 176°
2026-05-08 03:20 36.22539 6.62369 35852 ft 497 kts 174°
2026-05-08 03:20 36.19150 6.63281 36127 ft 495 kts 174°
2026-05-08 03:20 36.15775 6.64204 36332 ft 494 kts 174°
2026-05-08 03:21 36.12421 6.65110 36497 ft 493 kts 174°
2026-05-08 03:21 36.09114 6.65984 36644 ft 493 kts 175°
2026-05-08 03:21 36.05755 6.66857 36810 ft 492 kts 175°
2026-05-08 03:21 36.02407 6.67717 36983 ft 491 kts 175°
2026-05-08 03:22 35.99047 6.68571 37016 ft 493 kts 175°
2026-05-08 03:22 35.92299 6.70279 37017 ft 494 kts 175°
2026-05-08 03:23 35.85582 6.71982 37017 ft 491 kts 175°
2026-05-08 03:23 35.78893 6.73676 37017 ft 490 kts 175°
2026-05-08 03:24 35.72226 6.75362 37017 ft 488 kts 175°
2026-05-08 03:24 35.65613 6.77031 37018 ft 487 kts 175°
2026-05-08 03:25 35.58982 6.78702 37009 ft 486 kts 175°
2026-05-08 03:25 35.52391 6.80359 37008 ft 485 kts 175°
2026-05-08 03:26 35.45788 6.82017 37002 ft 483 kts 175°
2026-05-08 03:26 35.39206 6.83668 36993 ft 482 kts 175°
2026-05-08 03:27 35.32627 6.85313 36990 ft 482 kts 175°
2026-05-08 03:27 35.26040 6.86957 36987 ft 482 kts 175°
2026-05-08 03:28 35.19460 6.88598 36982 ft 482 kts 175°
2026-05-08 03:28 35.12930 6.90226 36978 ft 481 kts 175°
2026-05-08 03:29 35.06359 6.91861 36976 ft 481 kts 174°
2026-05-08 03:29 34.99807 6.93488 36971 ft 480 kts 174°
2026-05-08 03:30 34.90016 6.95914 36967 ft 480 kts 175°
2026-05-08 03:31 34.76931 6.99149 36962 ft 479 kts 174°
2026-05-08 03:32 34.67133 7.01636 36955 ft 479 kts 174°
2026-05-08 03:32 34.60641 7.03283 36952 ft 479 kts 174°
2026-05-08 03:33 34.54117 7.04931 36946 ft 478 kts 174°
2026-05-08 03:33 34.47595 7.06573 36941 ft 477 kts 174°
2026-05-08 03:34 34.41095 7.08207 36933 ft 477 kts 174°
2026-05-08 03:34 34.34629 7.09829 36927 ft 477 kts 174°
2026-05-08 03:35 34.28133 7.11457 36923 ft 476 kts 174°
2026-05-08 03:35 34.21628 7.13085 36912 ft 476 kts 174°
2026-05-08 03:36 34.15143 7.14706 36899 ft 476 kts 174°
2026-05-08 03:36 34.08648 7.16325 36907 ft 475 kts 174°
2026-05-08 03:37 34.02206 7.17930 36891 ft 475 kts 174°
2026-05-08 03:37 33.95740 7.19537 36889 ft 474 kts 174°
2026-05-08 03:38 33.89299 7.21138 36883 ft 471 kts 174°
2026-05-08 03:38 33.82880 7.22729 36884 ft 471 kts 174°
2026-05-08 03:39 33.76458 7.24317 36889 ft 470 kts 174°
2026-05-08 03:39 33.70090 7.25891 36887 ft 470 kts 174°
2026-05-08 03:40 33.63679 7.27471 36891 ft 470 kts 175°
2026-05-08 03:40 33.57255 7.29054 36886 ft 470 kts 175°
2026-05-08 03:41 33.50855 7.30629 36890 ft 469 kts 175°
2026-05-08 03:41 33.44452 7.32202 36890 ft 469 kts 175°
2026-05-08 03:42 33.38099 7.33761 36895 ft 468 kts 175°
2026-05-08 03:42 33.31713 7.35325 36898 ft 467 kts 175°
2026-05-08 03:43 33.25337 7.36884 36903 ft 467 kts 175°
2026-05-08 03:43 33.18957 7.38442 36902 ft 467 kts 175°
2026-05-08 03:44 33.12623 7.39986 36896 ft 466 kts 175°
2026-05-08 03:44 33.06274 7.41533 36903 ft 465 kts 175°
2026-05-08 03:45 32.99936 7.43072 36891 ft 465 kts 175°
2026-05-08 03:45 32.93597 7.44611 36901 ft 464 kts 175°
2026-05-08 03:46 32.87277 7.46144 36897 ft 463 kts 175°
2026-05-08 03:46 32.81012 7.47662 36896 ft 462 kts 175°
2026-05-08 03:47 32.74708 7.49185 36898 ft 461 kts 176°
2026-05-08 03:47 32.68425 7.50701 36895 ft 460 kts 176°
2026-05-08 03:48 32.62168 7.52210 36890 ft 458 kts 176°
2026-05-08 03:48 32.56971 7.53459 36886 ft 457 kts 176°
2026-05-08 03:49 32.50744 7.54955 36890 ft 456 kts 176°
2026-05-08 03:49 32.44539 7.56444 36890 ft 454 kts 176°
2026-05-08 03:50 32.38348 7.57928 36890 ft 453 kts 176°
2026-05-08 03:50 32.32170 7.59407 36889 ft 452 kts 177°
2026-05-08 03:51 32.26005 7.60881 36885 ft 451 kts 177°
2026-05-08 03:51 32.19894 7.62339 36890 ft 450 kts 177°
2026-05-08 03:52 32.13758 7.63802 36886 ft 449 kts 177°
2026-05-08 03:52 32.07638 7.65258 36886 ft 448 kts 177°
2026-05-08 03:53 32.01527 7.66711 36879 ft 447 kts 177°
2026-05-08 03:53 31.95430 7.68159 36881 ft 447 kts 177°
2026-05-08 03:54 31.89328 7.69605 36881 ft 447 kts 177°
2026-05-08 03:54 31.83229 7.71047 36877 ft 447 kts 177°
2026-05-08 03:55 31.77133 7.72487 36879 ft 447 kts 177°
2026-05-08 03:55 31.71071 7.73932 36873 ft 447 kts 177°
2026-05-08 03:56 31.64967 7.75413 36880 ft 448 kts 177°
2026-05-08 03:56 31.58847 7.76898 36881 ft 449 kts 177°
2026-05-08 03:57 31.52717 7.78380 36877 ft 449 kts 177°
2026-05-08 03:57 31.46627 7.79847 36881 ft 450 kts 177°
2026-05-08 03:58 31.40479 7.81326 36878 ft 451 kts 177°
2026-05-08 03:58 31.34321 7.82805 36881 ft 451 kts 177°
2026-05-08 03:59 31.28165 7.84281 36880 ft 452 kts 177°
2026-05-08 03:59 31.22021 7.85753 36881 ft 452 kts 177°
2026-05-08 04:00 31.15845 7.87230 36878 ft 453 kts 177°
2026-05-08 04:00 31.09654 7.88709 36878 ft 454 kts 177°
2026-05-08 04:01 31.03479 7.90182 36888 ft 456 kts 177°
2026-05-08 04:01 30.97241 7.91669 36901 ft 457 kts 177°
2026-05-08 04:02 30.91011 7.93152 36890 ft 457 kts 177°
2026-05-08 04:02 30.84778 7.94633 36902 ft 458 kts 177°
2026-05-08 04:03 30.78552 7.96110 36890 ft 458 kts 177°
2026-05-08 04:03 30.69157 7.98336 36891 ft 460 kts 177°
2026-05-08 04:04 30.62871 7.99823 36899 ft 460 kts 177°
2026-05-08 04:04 30.56589 8.01308 36899 ft 461 kts 178°
2026-05-08 04:05 30.50275 8.02798 36913 ft 462 kts 177°
2026-05-08 04:05 30.44017 8.04274 36898 ft 462 kts 178°
2026-05-08 04:06 30.37713 8.05758 36908 ft 462 kts 178°
2026-05-08 04:06 30.31396 8.07239 36902 ft 463 kts 178°
2026-05-08 04:07 30.25076 8.08724 36909 ft 463 kts 178°
2026-05-08 04:07 30.18755 8.10206 36914 ft 463 kts 178°
2026-05-08 04:08 30.12423 8.11690 36915 ft 463 kts 178°
2026-05-08 04:08 30.06132 8.13162 36929 ft 463 kts 178°
2026-05-08 04:09 29.99813 8.14655 36920 ft 464 kts 177°
2026-05-08 04:09 29.93479 8.16163 36909 ft 464 kts 177°
2026-05-08 04:10 29.87193 8.17658 36929 ft 464 kts 177°
2026-05-08 04:10 29.80875 8.19157 36920 ft 464 kts 177°
2026-05-08 04:11 29.74548 8.20654 36934 ft 464 kts 177°
2026-05-08 04:11 29.68228 8.22148 36936 ft 464 kts 177°
2026-05-08 04:12 29.61904 8.23641 36932 ft 464 kts 177°
2026-05-08 04:12 29.55579 8.25132 36933 ft 464 kts 177°
2026-05-08 04:13 29.49293 8.26612 36933 ft 464 kts 178°
2026-05-08 04:13 29.42955 8.28101 36934 ft 465 kts 178°
2026-05-08 04:14 29.36614 8.29590 36938 ft 465 kts 178°
2026-05-08 04:14 29.30278 8.31077 36944 ft 465 kts 178°
2026-05-08 04:15 29.23940 8.32561 36943 ft 465 kts 178°
2026-05-08 04:15 29.17601 8.34045 36942 ft 465 kts 178°
2026-05-08 04:16 29.11286 8.35520 36943 ft 466 kts 178°
2026-05-08 04:16 29.04930 8.37004 36943 ft 466 kts 178°
2026-05-08 04:17 28.98562 8.38489 36943 ft 466 kts 178°
2026-05-08 04:17 28.92205 8.39969 36950 ft 466 kts 178°
2026-05-08 04:18 28.85848 8.41446 36953 ft 467 kts 178°
2026-05-08 04:18 28.79521 8.42914 36953 ft 467 kts 178°
2026-05-08 04:19 28.73144 8.44394 36953 ft 467 kts 178°
2026-05-08 04:19 28.66771 8.45871 36961 ft 467 kts 178°
2026-05-08 04:20 28.60403 8.47344 36962 ft 467 kts 178°
2026-05-08 04:20 28.54030 8.48817 36962 ft 467 kts 178°
2026-05-08 04:21 28.47638 8.50291 36962 ft 468 kts 178°
2026-05-08 04:21 28.41252 8.51763 36962 ft 468 kts 178°
2026-05-08 04:22 28.34906 8.53225 36962 ft 468 kts 178°
2026-05-08 04:22 28.28522 8.54692 36962 ft 468 kts 178°
2026-05-08 04:23 28.22145 8.56156 36963 ft 468 kts 178°
2026-05-08 04:23 28.15759 8.57621 36963 ft 468 kts 178°
2026-05-08 04:24 28.09371 8.59086 36964 ft 468 kts 178°
2026-05-08 04:24 28.02990 8.60557 36962 ft 468 kts 178°
2026-05-08 04:25 27.96606 8.62039 36960 ft 468 kts 178°
2026-05-08 04:25 27.90202 8.63521 36962 ft 470 kts 178°
2026-05-08 04:26 27.83817 8.64996 36962 ft 471 kts 178°
2026-05-08 04:26 27.77395 8.66480 36962 ft 471 kts 178°
2026-05-08 04:27 27.70951 8.67965 36961 ft 472 kts 178°
2026-05-08 04:27 27.64509 8.69447 36961 ft 472 kts 178°
2026-05-08 04:28 27.58109 8.70919 36961 ft 472 kts 178°
2026-05-08 04:28 27.51665 8.72398 36962 ft 473 kts 178°
2026-05-08 04:29 27.45208 8.73878 36967 ft 474 kts 178°
2026-05-08 04:29 27.38743 8.75359 36971 ft 475 kts 178°
2026-05-08 04:30 27.32256 8.76842 36971 ft 475 kts 178°
2026-05-08 04:30 27.25771 8.78325 36971 ft 476 kts 178°
2026-05-08 04:31 27.19267 8.79809 36972 ft 477 kts 178°
2026-05-08 04:31 27.12759 8.81293 36971 ft 477 kts 178°
2026-05-08 04:32 27.06285 8.82768 36971 ft 477 kts 178°
2026-05-08 04:32 26.99761 8.84252 36971 ft 478 kts 178°
2026-05-08 04:33 26.93280 8.85735 36971 ft 479 kts 178°
2026-05-08 04:33 26.86742 8.87235 36971 ft 479 kts 178°
2026-05-08 04:34 26.80204 8.88732 36971 ft 479 kts 178°
2026-05-08 04:34 26.73673 8.90224 36971 ft 480 kts 178°
2026-05-08 04:35 26.67165 8.91709 36972 ft 480 kts 178°
2026-05-08 04:35 26.60609 8.93204 36971 ft 480 kts 178°
2026-05-08 04:36 26.54043 8.94699 36971 ft 481 kts 178°
2026-05-08 04:36 26.48590 8.95940 36971 ft 480 kts 178°
2026-05-08 04:37 26.42025 8.97432 36971 ft 481 kts 178°
2026-05-08 04:37 26.35453 8.98923 36972 ft 482 kts 178°
2026-05-08 04:38 26.28876 9.00415 36971 ft 482 kts 178°
2026-05-08 04:38 26.22297 9.01904 36971 ft 482 kts 178°
2026-05-08 04:39 26.15722 9.03392 36970 ft 482 kts 178°
2026-05-08 04:39 26.09148 9.04877 36970 ft 483 kts 178°
2026-05-08 04:40 26.02597 9.06355 36973 ft 484 kts 178°
2026-05-08 04:40 25.95994 9.07848 36976 ft 484 kts 178°
2026-05-08 04:41 25.89346 9.09356 36981 ft 488 kts 178°
2026-05-08 04:41 25.82684 9.10871 36982 ft 488 kts 178°
2026-05-08 04:42 25.76026 9.12384 36979 ft 488 kts 178°
2026-05-08 04:42 25.69405 9.13883 36983 ft 488 kts 178°
2026-05-08 04:43 25.62746 9.15389 36989 ft 488 kts 178°
2026-05-08 04:43 25.56069 9.16896 36990 ft 489 kts 178°
2026-05-08 04:44 25.49386 9.18404 36989 ft 490 kts 178°
2026-05-08 04:44 25.42706 9.19910 36997 ft 490 kts 178°
2026-05-08 04:45 25.36066 9.21407 37000 ft 490 kts 178°
2026-05-08 04:45 25.29374 9.22911 36999 ft 490 kts 178°
2026-05-08 04:46 25.22696 9.24410 37002 ft 490 kts 178°
2026-05-08 04:46 25.16000 9.25912 37008 ft 491 kts 178°
2026-05-08 04:47 25.09298 9.27414 37007 ft 491 kts 178°
2026-05-08 04:47 25.02587 9.28916 37007 ft 491 kts 178°
2026-05-08 04:48 24.95918 9.30408 37009 ft 491 kts 178°
2026-05-08 04:48 24.89208 9.31906 37020 ft 493 kts 178°
2026-05-08 04:49 24.82470 9.33409 37017 ft 493 kts 178°
2026-05-08 04:49 24.75747 9.34907 37017 ft 493 kts 178°
2026-05-08 04:50 24.69018 9.36405 37018 ft 494 kts 178°
2026-05-08 04:50 24.62314 9.37896 37017 ft 494 kts 178°
2026-05-08 04:51 24.55530 9.39404 37019 ft 494 kts 178°
2026-05-08 04:51 24.48812 9.40894 37018 ft 495 kts 178°
2026-05-08 04:52 24.42039 9.42395 37018 ft 496 kts 178°
2026-05-08 04:52 24.35276 9.43894 37017 ft 496 kts 178°
2026-05-08 04:53 24.28556 9.45852 37017 ft 511 kts 166°
2026-05-08 04:53 24.22147 9.49471 37017 ft 521 kts 158°
2026-05-08 04:54 24.15881 9.53494 37017 ft 522 kts 157°
2026-05-08 04:54 24.09667 9.57542 37017 ft 523 kts 157°
2026-05-08 04:55 24.03389 9.61589 37017 ft 523 kts 157°
2026-05-08 04:55 23.97102 9.65609 37017 ft 523 kts 157°
2026-05-08 04:56 23.90803 9.69625 37017 ft 524 kts 157°
2026-05-08 04:56 23.84540 9.73615 37018 ft 524 kts 157°
2026-05-08 04:57 23.78245 9.77622 37017 ft 524 kts 157°
2026-05-08 04:57 23.71940 9.81630 37018 ft 524 kts 157°
2026-05-08 04:58 23.65642 9.85631 37026 ft 523 kts 157°
2026-05-08 04:58 23.59340 9.89629 37026 ft 523 kts 157°
2026-05-08 04:59 23.53030 9.93628 37029 ft 523 kts 157°
2026-05-08 04:59 23.46729 9.97616 37026 ft 524 kts 157°
2026-05-08 05:00 23.40453 10.01584 37026 ft 524 kts 157°
2026-05-08 05:00 23.34140 10.05571 37026 ft 524 kts 156°
2026-05-08 05:01 23.27823 10.09557 37027 ft 524 kts 156°
2026-05-08 05:01 23.21548 10.13510 37026 ft 524 kts 156°
2026-05-08 05:02 23.15238 10.17483 37026 ft 524 kts 156°
2026-05-08 05:02 23.08925 10.21453 37027 ft 524 kts 156°
2026-05-08 05:03 23.02606 10.25422 37026 ft 524 kts 156°
2026-05-08 05:03 22.96290 10.29385 37026 ft 524 kts 156°
2026-05-08 05:04 22.89969 10.33347 37026 ft 524 kts 156°
2026-05-08 05:04 22.83690 10.37279 37025 ft 524 kts 156°
2026-05-08 05:05 22.77358 10.41237 37017 ft 524 kts 156°
2026-05-08 05:05 22.71041 10.45183 37009 ft 524 kts 156°
2026-05-08 05:06 22.64724 10.49127 37009 ft 524 kts 155°
2026-05-08 05:06 22.58433 10.53150 37009 ft 526 kts 154°
2026-05-08 05:07 22.52251 10.57346 37008 ft 526 kts 153°
2026-05-08 05:07 22.46048 10.61564 37004 ft 526 kts 153°
2026-05-08 05:08 22.39829 10.65748 36998 ft 525 kts 153°
2026-05-08 05:08 22.33650 10.69878 36999 ft 525 kts 153°
2026-05-08 05:09 22.27439 10.74023 36999 ft 525 kts 153°
2026-05-08 05:09 22.21216 10.78172 36999 ft 525 kts 153°
2026-05-08 05:10 22.11886 10.84385 37000 ft 525 kts 153°
2026-05-08 05:11 22.05657 10.88529 36999 ft 525 kts 153°
2026-05-08 05:11 21.99477 10.92637 36999 ft 525 kts 153°
2026-05-08 05:12 21.93252 10.96769 36999 ft 525 kts 153°
2026-05-08 05:12 21.87028 11.00897 36996 ft 525 kts 153°
2026-05-08 05:13 21.80799 11.05023 36990 ft 525 kts 153°
2026-05-08 05:13 21.74580 11.09140 36990 ft 525 kts 153°
2026-05-08 05:14 21.68391 11.13231 36990 ft 525 kts 153°
2026-05-08 05:14 21.62166 11.17340 36990 ft 524 kts 153°
2026-05-08 05:15 21.55948 11.21444 36990 ft 524 kts 153°
2026-05-08 05:15 21.49728 11.25543 36990 ft 525 kts 153°
2026-05-08 05:16 21.43511 11.29637 36986 ft 524 kts 153°
2026-05-08 05:16 21.37294 11.33725 36980 ft 524 kts 152°
2026-05-08 05:17 21.31102 11.37794 36980 ft 524 kts 152°
2026-05-08 05:17 21.24882 11.41877 36978 ft 524 kts 152°
2026-05-08 05:18 21.18655 11.45961 36980 ft 523 kts 152°
2026-05-08 05:18 21.12431 11.50038 36987 ft 524 kts 152°
2026-05-08 05:19 21.06212 11.54111 36990 ft 524 kts 152°
2026-05-08 05:19 20.99994 11.58177 36986 ft 523 kts 152°
2026-05-08 05:20 20.93821 11.62209 36984 ft 523 kts 152°
2026-05-08 05:20 20.87600 11.66269 36978 ft 523 kts 152°
2026-05-08 05:21 20.81381 11.70324 36982 ft 523 kts 152°
2026-05-08 05:21 20.75158 11.74379 36978 ft 522 kts 152°
2026-05-08 05:22 20.68999 11.78387 36982 ft 522 kts 152°
2026-05-08 05:22 20.62789 11.82425 36972 ft 522 kts 152°
2026-05-08 05:23 20.56571 11.86464 36971 ft 522 kts 152°
2026-05-08 05:23 20.50386 11.90481 36971 ft 522 kts 152°
2026-05-08 05:24 20.44181 11.94499 36971 ft 522 kts 152°
2026-05-08 05:24 20.38005 11.98494 36971 ft 521 kts 151°
2026-05-08 05:25 20.32809 12.01854 36971 ft 521 kts 151°
2026-05-08 05:25 20.26611 12.05859 36965 ft 521 kts 151°
2026-05-08 05:26 20.20416 12.09859 36962 ft 521 kts 151°
2026-05-08 05:26 20.14253 12.13835 36962 ft 521 kts 151°
2026-05-08 05:27 20.08046 12.17835 36964 ft 521 kts 151°
2026-05-08 05:27 20.01849 12.21823 36963 ft 521 kts 151°
2026-05-08 05:28 19.95649 12.25809 36962 ft 520 kts 151°
2026-05-08 05:28 19.89446 12.29795 36962 ft 521 kts 151°
2026-05-08 05:29 19.83284 12.33751 36961 ft 520 kts 151°
2026-05-08 05:29 19.77081 12.37730 36953 ft 520 kts 151°
2026-05-08 05:30 19.70869 12.41710 36953 ft 521 kts 151°
2026-05-08 05:30 19.64695 12.45662 36953 ft 522 kts 151°
2026-05-08 05:31 19.58474 12.49641 36953 ft 521 kts 151°
2026-05-08 05:31 19.52261 12.53612 36953 ft 521 kts 151°
2026-05-08 05:32 19.46037 12.57586 36952 ft 521 kts 151°
2026-05-08 05:32 19.39821 12.61551 36953 ft 522 kts 151°
2026-05-08 05:33 19.33603 12.65514 36949 ft 521 kts 151°
2026-05-08 05:33 19.27426 12.69448 36943 ft 522 kts 151°
2026-05-08 05:34 19.21197 12.73410 36944 ft 522 kts 151°
2026-05-08 05:34 19.14966 12.77371 36943 ft 522 kts 151°
2026-05-08 05:35 19.08743 12.81323 36943 ft 522 kts 151°
2026-05-08 05:35 19.02512 12.85276 36943 ft 522 kts 151°
2026-05-08 05:36 18.96069 12.88632 36948 ft 517 kts 163°
2026-05-08 05:36 18.89231 12.91035 36944 ft 517 kts 165°
2026-05-08 05:37 18.82341 12.93265 36942 ft 517 kts 166°
2026-05-08 05:37 18.75479 12.95470 36934 ft 517 kts 166°
2026-05-08 05:38 18.68600 12.97702 36934 ft 517 kts 165°
2026-05-08 05:38 18.61718 12.99946 36935 ft 517 kts 165°
2026-05-08 05:39 18.54825 13.02193 36935 ft 518 kts 165°
2026-05-08 05:39 18.47944 13.04436 36934 ft 518 kts 165°
2026-05-08 05:40 18.41090 13.06666 36934 ft 518 kts 165°
2026-05-08 05:40 18.34201 13.08905 36934 ft 518 kts 165°
2026-05-08 05:41 18.27305 13.11145 36935 ft 518 kts 165°
2026-05-08 05:41 18.20415 13.13380 36932 ft 518 kts 165°
2026-05-08 05:42 18.13508 13.15620 36919 ft 518 kts 165°
2026-05-08 05:42 18.06653 13.17842 36915 ft 518 kts 165°
2026-05-08 05:43 17.99753 13.20075 36929 ft 519 kts 165°
2026-05-08 05:43 17.92849 13.22308 36927 ft 518 kts 165°
2026-05-08 05:44 17.85957 13.24536 36926 ft 519 kts 165°
2026-05-08 05:44 17.79054 13.26764 36927 ft 519 kts 165°
2026-05-08 05:45 17.72151 13.28992 36928 ft 519 kts 165°
2026-05-08 05:45 17.65286 13.31205 36924 ft 519 kts 165°
2026-05-08 05:46 17.58377 13.33431 36922 ft 519 kts 165°
2026-05-08 05:46 17.51475 13.35653 36924 ft 518 kts 165°
2026-05-08 05:47 17.44578 13.37871 36924 ft 519 kts 165°
2026-05-08 05:47 17.37665 13.40093 36916 ft 519 kts 165°
2026-05-08 05:48 17.30756 13.42311 36920 ft 519 kts 165°
2026-05-08 05:48 17.23896 13.44512 36920 ft 519 kts 165°
2026-05-08 05:49 17.16985 13.46728 36912 ft 519 kts 165°
2026-05-08 05:49 17.10075 13.48941 36920 ft 518 kts 165°
2026-05-08 05:50 17.03160 13.51155 36920 ft 518 kts 165°
2026-05-08 05:50 16.96303 13.53348 36914 ft 518 kts 165°
2026-05-08 05:51 16.89391 13.55557 36904 ft 518 kts 165°
2026-05-08 05:51 16.82496 13.57760 36896 ft 518 kts 164°
2026-05-08 05:52 16.75599 13.59960 36896 ft 518 kts 164°
2026-05-08 05:52 16.68710 13.62156 36897 ft 518 kts 164°
2026-05-08 05:53 16.61816 13.64353 36892 ft 518 kts 164°
2026-05-08 05:53 16.54963 13.66538 36888 ft 518 kts 164°
2026-05-08 05:54 16.48067 13.68734 36884 ft 518 kts 164°
2026-05-08 05:54 16.41164 13.70926 36886 ft 518 kts 164°
2026-05-08 05:55 16.34257 13.73118 36885 ft 518 kts 164°
2026-05-08 05:55 16.27388 13.75299 36891 ft 518 kts 164°
2026-05-08 05:56 16.20486 13.77488 36891 ft 518 kts 164°
2026-05-08 05:56 16.13579 13.79677 36888 ft 518 kts 164°
2026-05-08 05:57 16.06682 13.81862 36886 ft 518 kts 164°
2026-05-08 05:57 15.99777 13.84047 36887 ft 518 kts 164°
2026-05-08 05:58 15.92924 13.86216 36885 ft 518 kts 164°
2026-05-08 05:58 15.86020 13.88398 36888 ft 518 kts 164°
2026-05-08 05:59 15.79096 13.90584 36890 ft 518 kts 164°
2026-05-08 05:59 15.72200 13.92760 36890 ft 518 kts 164°
2026-05-08 06:00 15.65327 13.94927 36886 ft 518 kts 164°
2026-05-08 06:00 15.58422 13.97102 36891 ft 518 kts 164°
2026-05-08 06:01 15.51515 13.99278 36884 ft 518 kts 164°
2026-05-08 06:01 15.44654 14.01438 36890 ft 518 kts 164°
2026-05-08 06:02 15.37759 14.03607 36879 ft 518 kts 164°
2026-05-08 06:02 15.30856 14.05776 36881 ft 518 kts 164°
2026-05-08 06:03 15.23943 14.07947 36880 ft 517 kts 164°
2026-05-08 06:03 15.17048 14.10112 36877 ft 517 kts 164°
2026-05-08 06:04 15.10200 14.12259 36878 ft 517 kts 164°
2026-05-08 06:04 15.03316 14.14416 36878 ft 517 kts 164°
2026-05-08 06:05 14.96426 14.16575 36877 ft 517 kts 164°
2026-05-08 06:05 14.89540 14.18730 36878 ft 517 kts 164°
2026-05-08 06:06 14.82648 14.20887 36881 ft 516 kts 164°
2026-05-08 06:06 14.75769 14.23037 36876 ft 516 kts 164°
2026-05-08 06:07 14.68889 14.25186 36876 ft 516 kts 164°
2026-05-08 06:07 14.62004 14.27335 36876 ft 516 kts 164°
2026-05-08 06:08 14.55164 14.29468 36871 ft 516 kts 164°
2026-05-08 06:08 14.48291 14.31610 36870 ft 515 kts 163°
2026-05-08 06:09 14.41425 14.33750 36870 ft 515 kts 163°
2026-05-08 06:09 14.34549 14.35892 36869 ft 515 kts 163°
2026-05-08 06:10 14.27672 14.38032 36869 ft 515 kts 163°
2026-05-08 06:10 14.20808 14.40166 36869 ft 515 kts 163°
2026-05-08 06:11 14.15099 14.41940 36869 ft 515 kts 163°
2026-05-08 06:11 14.07112 14.44421 36869 ft 515 kts 163°
2026-05-08 06:12 14.00232 14.46556 36869 ft 516 kts 163°
2026-05-08 06:12 13.94521 14.48328 36870 ft 516 kts 163°
2026-05-08 06:13 13.87642 14.50461 36869 ft 516 kts 163°
2026-05-08 06:13 13.80764 14.52591 36868 ft 516 kts 163°
2026-05-08 06:14 13.73882 14.54722 36868 ft 516 kts 163°
2026-05-08 06:14 13.67044 14.56839 36864 ft 516 kts 163°
2026-05-08 06:15 13.60170 14.58965 36860 ft 516 kts 163°
2026-05-08 06:15 13.53287 14.61092 36860 ft 516 kts 163°
2026-05-08 06:16 13.46404 14.63219 36860 ft 516 kts 163°
2026-05-08 06:16 13.39524 14.65343 36859 ft 516 kts 163°
2026-05-08 06:17 13.29207 14.68526 36860 ft 516 kts 163°
2026-05-08 06:17 13.22323 14.70647 36860 ft 516 kts 163°
2026-05-08 06:18 13.15445 14.72766 36861 ft 516 kts 163°
2026-05-08 06:18 13.08563 14.74885 36871 ft 516 kts 163°
2026-05-08 06:19 13.01721 14.76990 36881 ft 516 kts 163°
2026-05-08 06:19 12.94838 14.79107 36887 ft 516 kts 163°
2026-05-08 06:20 12.87957 14.81222 36885 ft 516 kts 163°
2026-05-08 06:20 12.81074 14.83337 36889 ft 516 kts 163°
2026-05-08 06:21 12.74193 14.85451 36890 ft 516 kts 163°
2026-05-08 06:21 12.67333 14.87555 36888 ft 517 kts 163°
2026-05-08 06:22 12.60437 14.89669 36886 ft 517 kts 163°
2026-05-08 06:22 12.53543 14.91781 36885 ft 517 kts 163°
2026-05-08 06:23 12.46637 14.93897 36890 ft 517 kts 163°
2026-05-08 06:23 12.39727 14.96012 36885 ft 517 kts 163°
2026-05-08 06:24 12.32823 14.98125 36886 ft 518 kts 163°
2026-05-08 06:24 12.25957 15.00225 36890 ft 517 kts 163°
2026-05-08 06:25 12.19054 15.02335 36890 ft 517 kts 163°
2026-05-08 06:25 12.12045 15.03961 37062 ft 517 kts 173°
2026-05-08 06:26 12.08465 15.04395 37238 ft 516 kts 175°
2026-05-08 06:26 12.04891 15.04770 37406 ft 516 kts 175°
2026-05-08 06:26 12.01317 15.05114 37578 ft 516 kts 176°
2026-05-08 06:26 11.97737 15.05446 37753 ft 515 kts 176°
2026-05-08 06:27 11.94215 15.05771 37943 ft 514 kts 176°
2026-05-08 06:27 11.90657 15.06104 38114 ft 513 kts 176°
2026-05-08 06:27 11.87101 15.06439 38242 ft 513 kts 176°
2026-05-08 06:27 11.83545 15.06779 38329 ft 514 kts 176°
2026-05-08 06:28 11.79987 15.07121 38447 ft 514 kts 176°
2026-05-08 06:28 11.76425 15.07464 38573 ft 514 kts 176°
2026-05-08 06:28 11.72856 15.07807 38700 ft 513 kts 176°
2026-05-08 06:28 11.69300 15.08149 38820 ft 513 kts 176°
2026-05-08 06:29 11.62214 15.08830 38889 ft 516 kts 176°
2026-05-08 06:29 11.55056 15.09517 38887 ft 516 kts 176°
2026-05-08 06:30 11.47911 15.10204 38887 ft 516 kts 176°
2026-05-08 06:30 11.40755 15.10890 38888 ft 516 kts 176°
2026-05-08 06:31 11.33607 15.11575 38890 ft 516 kts 176°
2026-05-08 06:31 11.26500 15.12257 38888 ft 515 kts 176°
2026-05-08 06:32 11.19350 15.12942 38887 ft 515 kts 175°
2026-05-08 06:32 11.12218 15.13624 38889 ft 515 kts 175°
2026-05-08 06:33 11.05082 15.14307 38888 ft 514 kts 175°
2026-05-08 06:33 10.98004 15.14984 38887 ft 514 kts 175°
2026-05-08 06:34 10.90876 15.15667 38887 ft 514 kts 175°
2026-05-08 06:34 10.83746 15.16348 38894 ft 514 kts 175°
2026-05-08 06:35 10.76627 15.17028 38895 ft 514 kts 175°
2026-05-08 06:35 10.69518 15.17706 38897 ft 513 kts 175°
2026-05-08 06:36 10.62446 15.18381 38896 ft 513 kts 175°
2026-05-08 06:36 10.55336 15.19059 38899 ft 513 kts 175°
2026-05-08 06:37 10.48229 15.19737 38895 ft 512 kts 175°
2026-05-08 06:37 10.41122 15.20414 38895 ft 512 kts 175°
2026-05-08 06:38 10.34026 15.21090 38895 ft 512 kts 175°
2026-05-08 06:38 10.26966 15.21762 38906 ft 512 kts 175°
2026-05-08 06:39 10.19870 15.22438 38905 ft 511 kts 175°
2026-05-08 06:39 10.12780 15.23112 38907 ft 511 kts 175°
2026-05-08 06:40 10.05695 15.23786 38907 ft 511 kts 175°
2026-05-08 06:40 9.98602 15.24460 38907 ft 511 kts 175°
2026-05-08 06:41 9.91573 15.25128 38909 ft 510 kts 175°
2026-05-08 06:41 9.84513 15.25799 38904 ft 510 kts 175°
2026-05-08 06:42 9.77447 15.26470 38911 ft 509 kts 175°
2026-05-08 06:42 9.70382 15.27142 38919 ft 509 kts 175°
2026-05-08 06:43 9.63323 15.27811 38912 ft 509 kts 175°
2026-05-08 06:43 9.56263 15.28480 38913 ft 509 kts 175°
2026-05-08 06:44 9.49206 15.29149 38913 ft 509 kts 175°
2026-05-08 06:44 9.42139 15.29818 38918 ft 509 kts 175°
2026-05-08 06:45 9.35120 15.30487 38913 ft 509 kts 175°
2026-05-08 06:45 9.28064 15.31154 38917 ft 509 kts 175°
2026-05-08 06:46 9.20996 15.31820 38925 ft 509 kts 175°
2026-05-08 06:46 9.13932 15.32486 38930 ft 509 kts 175°
2026-05-08 06:47 9.06873 15.33153 38920 ft 509 kts 175°
2026-05-08 06:47 8.99825 15.33820 38931 ft 508 kts 175°
2026-05-08 06:48 8.92780 15.34485 38920 ft 508 kts 175°
2026-05-08 06:48 8.85775 15.35148 38930 ft 508 kts 175°
2026-05-08 06:49 8.78715 15.35814 38930 ft 508 kts 175°
2026-05-08 06:49 8.71650 15.36478 38916 ft 508 kts 175°
2026-05-08 06:50 8.64653 15.37137 38930 ft 508 kts 175°
2026-05-08 06:50 8.57603 15.37801 38937 ft 507 kts 174°
2026-05-08 06:51 8.50568 15.38465 38932 ft 507 kts 174°
2026-05-08 06:51 8.43574 15.39123 38930 ft 507 kts 174°
2026-05-08 06:52 8.36535 15.39786 38930 ft 507 kts 174°
2026-05-08 06:52 8.29508 15.40447 38932 ft 507 kts 174°
2026-05-08 06:53 8.22469 15.41109 38930 ft 507 kts 174°
2026-05-08 06:53 8.15444 15.41769 38937 ft 507 kts 174°
2026-05-08 06:54 8.08421 15.42430 38937 ft 506 kts 174°
2026-05-08 06:54 8.01392 15.43090 38937 ft 506 kts 174°
2026-05-08 06:55 7.94416 15.43749 38933 ft 506 kts 174°
2026-05-08 06:55 7.87404 15.44407 38936 ft 506 kts 174°
2026-05-08 06:56 7.80387 15.45064 38935 ft 506 kts 174°
2026-05-08 06:56 7.73361 15.45723 38934 ft 506 kts 174°
2026-05-08 06:57 7.66342 15.46382 38937 ft 506 kts 174°
2026-05-08 06:57 7.59324 15.47040 38935 ft 506 kts 174°
2026-05-08 06:58 7.52349 15.47695 38943 ft 506 kts 174°
2026-05-08 06:58 7.45334 15.48353 38943 ft 507 kts 174°
2026-05-08 06:59 7.38308 15.49011 38943 ft 507 kts 174°
2026-05-08 06:59 7.31274 15.49670 38948 ft 507 kts 174°
2026-05-08 07:00 7.24234 15.50331 38943 ft 507 kts 174°
2026-05-08 07:00 7.17248 15.50985 38940 ft 507 kts 174°
2026-05-08 07:01 7.10215 15.51642 38945 ft 507 kts 174°
2026-05-08 07:01 7.03168 15.52301 38946 ft 508 kts 174°
2026-05-08 07:02 6.97313 15.52849 38942 ft 508 kts 174°
2026-05-08 07:02 6.90264 15.53509 38941 ft 508 kts 174°
2026-05-08 07:03 6.83224 15.54168 38941 ft 508 kts 174°
2026-05-08 07:03 6.76181 15.54825 38941 ft 509 kts 174°
2026-05-08 07:04 6.69121 15.55483 38944 ft 509 kts 174°
2026-05-08 07:04 6.62070 15.56142 38944 ft 509 kts 174°
2026-05-08 07:05 6.55053 15.56796 38947 ft 509 kts 174°
2026-05-08 07:05 6.48001 15.57454 38943 ft 510 kts 174°
2026-05-08 07:06 6.40936 15.58112 38947 ft 510 kts 174°
2026-05-08 07:06 6.33868 15.58771 38944 ft 510 kts 174°
2026-05-08 07:07 6.26803 15.59429 38941 ft 510 kts 174°
2026-05-08 07:07 6.19733 15.60088 38944 ft 510 kts 174°
2026-05-08 07:08 6.12656 15.60747 38943 ft 510 kts 174°
2026-05-08 07:08 6.05626 15.61401 38941 ft 510 kts 174°
2026-05-08 07:09 5.98551 15.62060 38943 ft 511 kts 174°
2026-05-08 07:09 5.91469 15.62719 38944 ft 510 kts 174°
2026-05-08 07:10 5.84399 15.63376 38942 ft 510 kts 174°
2026-05-08 07:10 5.77337 15.64033 38941 ft 510 kts 174°
2026-05-08 07:11 5.70315 15.64687 38941 ft 510 kts 174°
2026-05-08 07:11 5.63256 15.65344 38948 ft 509 kts 174°